Regional Weather Roundup
Issued by NWS

Home | Current Version | Previous Version | Text Only | Print | Product List | Glossary Off
Versions: 1 2 3 4 5 6 7 8 9 10 11 12 13 14 15 16 17 18 19 20 21 22 23 24 25 26 27 28 29 30 31 32 33 34 35 36 37 38 39 40 41 42 43 44 45 46 47 48 49 50

000
ASUS43 KLOT 040021
RWRIL

ILLINOIS REGIONAL WEATHER ROUNDUP
NATIONAL WEATHER SERVICE CHICAGO/ROMEOVILLE IL
700 PM CDT THU SEP 03 2015

NOTE: "FAIR" INDICATES FEW OR NO CLOUDS BELOW 12,000 FEET WITH NO
SIGNIFICANT WEATHER AND/OR OBSTRUCTIONS TO VISIBILITY.

* THESE STATIONS ARE NOT UNDER NWS QUALITY CONTROL. THEY ALSO MAY NOT
  REPORT WEATHER SUCH AS PRECIPITATION OR FOG.

ILZ001-002-007-009-015-016-024-040100-
NORTHWEST ILLINOIS

CITY           SKY/WX    TMP DP  RH WIND       PRES   REMARKS
MOLINE         CLEAR     88  71  57 S3        29.88S HX  94
6HR MIN TEMP:  87; 6HR MAX TEMP:  93;

STERLING*      PTCLDY    84  73  70 SW3       29.87S HX  91
SAVANNA*       CLEAR     87  71  58 CALM      29.88S HX  93
$$

ILZ003-004-008-010-011-017-018-040100-
NORTH CENTRAL ILLINOIS

CITY           SKY/WX    TMP DP  RH WIND       PRES   REMARKS
ROCKFORD       PTCLDY    85  72  65 SW5       29.90S HX  91
6HR MIN TEMP:  85; 6HR MAX TEMP:  90;

FREEPORT*      CLEAR     82  74  77 CALM      29.92R HX  88
ROCHELLE*      CLEAR     83  74  73 CALM      29.90S HX  90
DE KALB*       CLEAR     84  72  67 W5        29.90F HX  90
PERU*          CLEAR     86  66  52 CALM      29.90S HX  88
$$

ILZ005-006-012>014-019>023-040100-
NORTHEAST ILLINOIS

CITY           SKY/WX    TMP DP  RH WIND       PRES   REMARKS
CHICAGO-OHARE  MOCLDY    76  69  79 NE16      29.90R
6HR MIN TEMP:  77; 6HR MAX TEMP:  91;

CHICAGO-MIDWAY MOCLDY    89  68  49 W8        29.88S HX  93
6HR MIN TEMP:  89; 6HR MAX TEMP:  93;

AURORA         CLEAR     85  72  65 SW5       29.90S HX  91
6HR MIN TEMP:  84; 6HR MAX TEMP:  90;

LANSING*       PTCLDY    84  67  57 W6        29.90R HX  86
JOLIET*        CLEAR     88  71  57 SW3       29.89S HX  93
WAUKEGAN       PTCLDY    69  66  90 NE7       29.91R
6HR MIN TEMP:  69; 6HR MAX TEMP:  88;

DUPAGE AIRPORT CLEAR     86  70  58 SW5       29.89S HX  90
6HR MIN TEMP:  85; 6HR MAX TEMP:  90;

KANKAKEE*      CLEAR     87  69  55 CALM      29.91S HX  91
WHEELING       PTCLDY    74  67  78 NE9G20    29.93R
6HR MIN TEMP:  74; 6HR MAX TEMP:  91;

MORRIS*        CLEAR     84  72  66 SW5       29.89S HX  89
ROMEOVILLE*    CLEAR     84  67  56 W6        29.89S HX  87
NORTHERLY ISL    N/A     88  66  48 W7          N/A  HX  90
$$

LMZ740>746-040100-
SOUTHERN LAKE MICHIGAN

STATION/POSITION SKY/WX   TEMP    WIND        PRES    VSBY  WAVE
                          AIR SEA DIR/SP/G                  HT/PER
                          (F)     (DEG/KT/KT) (MB)    (MI)  (FT/S)
SOUTHERN BUOY              70 71   10/ 12/ 14 1012.0F         1/ 3
WILMETTE HARBOR            71 64  210/ 10/ 14   N/A           2/ 2
HARRISON CRIB              72      30/ 21/ 24   N/A
BURNHAM HARBOR             76     350/ 14       N/A
CALUMET HARBOR             89     230/  5/ 12   N/A
BURNS HARBOR               83     260/ 10/ 13 1012.2S
MICHIGAN CITY              83     210/  9/  9   N/A
MICHIGAN CITY 6N           79 76  260/  4/  4   N/A           1
ST. JOSEPH                 73 74   60/ 16/ 17   N/A           1/ 3
$$

ILZ025>027-034>036-040-047-049-050-058-095>099-040100-
WEST-CENTRAL ILLINOIS

CITY           SKY/WX    TMP DP  RH WIND       PRES   REMARKS
QUINCY         CLEAR     87  68  52 SW5       29.90S HX  90
GALESBURG*     CLEAR     85  72  66 CALM      29.90S HX  91
MACOMB*        CLEAR     87  67  51 CALM      29.91F HX  90
JACKSONVILLE*  CLEAR     88  68  52 S5        29.90S HX  91
PITTSFIELD*    CLEAR     87  67  51 S3        29.92S HX  90
$$

ILZ028>032-037-038-041>044-048-051>054-059>061-040100-
CENTRAL ILLINOIS

CITY           SKY/WX    TMP DP  RH WIND       PRES   REMARKS
PONTIAC        CLEAR     86  72  64 CALM      29.91S HX  92
BLOOMINGTON    CLEAR     89  67  48 W7        29.93S HX  92
DECATUR        CLEAR     87  66  49 SW7       29.91S HX  89
PEORIA         CLEAR     88  68  51 CALM      29.90S HX  91
6HR MIN TEMP:  88; 6HR MAX TEMP:  95;

LACON*         CLEAR     86  69  56 CALM      29.89S HX  90
LINCOLN*       CLEAR     91  64  41 CALM      29.89S HX  92
SPRINGFIELD    CLEAR     88  66  48 SW6       29.91S HX  90
6HR MIN TEMP:  88; 6HR MAX TEMP:  95;

TAYLORVILLE    CLEAR     82  68  61 SW5       29.92S HX  85
$$

ILZ033-039-045-046-055>057-062-063-040100-
EAST-CENTRAL ILLINOIS

CITY           SKY/WX    TMP DP  RH WIND       PRES   REMARKS
CHAMPAIGN      CLEAR     84  69  60 S6        29.92S HX  88
RANTOUL*       CLEAR    N/A N/A N/A SW3       29.91
MATTOON        CLEAR     85  66  53 SW6       29.92S HX  87
PARIS*         PTCLDY    84  70  62 S5        29.93S HX  88
$$

ILZ079-100>102-040100-
SOUTHWEST ILLINOIS

CITY           SKY/WX    TMP DP  RH WIND       PRES   REMARKS
ALTON          PTCLDY    86  68  54 VRB3      29.92S HX  89
BELLEVILLE     CLEAR     86  74  67 CALM      29.90F HX  94
CAHOKIA*       PTCLDY    87  70  56 S3        29.91S HX  92
SPARTA*        CLEAR     84  70  62 CALM      29.93F HX  89
$$

ILZ064>066-069>071-074>076-080>082-084>086-088>090-092>094-040100-
SOUTH-CENTRAL ILLINOIS

CITY           SKY/WX    TMP DP  RH WIND       PRES   REMARKS
CARBONDALE     CLEAR     84  70  62 S5        29.93S HX  88
6HR MIN TEMP:  84; 6HR MAX TEMP:  90;

CAIRO*         CLEAR     82  76  81 CALM      29.92S HX  90
EFFINGHAM*     CLEAR     84  65  54 SW3       29.94S HX  85
MARION         CLEAR     86  70  58 CALM      29.94F HX  90
MT. VERNON     CLEAR     81  70  69 CALM      29.93S HX  84
CENTRALIA*     CLEAR     85  73  68 S3        29.92S HX  92
SALEM*         CLEAR     84  71  64 CALM      29.93S HX  88
METROPOLIS*    CLEAR     86  74  67 CALM      29.94S HX  93
$$

ILZ067-068-072-073-078-083-087-091-040100-
SOUTHEAST ILLINOIS

CITY           SKY/WX    TMP DP  RH WIND       PRES   REMARKS
LAWRENCEVILLE  MOCLDY    86  67  52 SW5       29.92F HX  89
FLORA*         CLEAR     83  67  59 SW3       29.93S HX  85
FAIRFIELD*     CLEAR     82  70  66 CALM      29.92S HX  86
HARRISBURG*    CLEAR     87  69  55 SW3       29.93S HX  90
ROBINSON*      CLEAR     82  71  67 CALM      29.93S HX  86
CARMI*         CLEAR     82  73  76 S3        29.92S HX  87
$$

ABBREVIATIONS USED IN REMARKS
   TC - TEMPERATURE IN CELSIUS
  WCI - WIND CHILL INDEX
   HX - HEAT INDEX
  VSB - VISIBILITY
$$




USA.gov is the U.S. government's official web portal to all federal, state and local government web resources and services.